Location: ???????
(60.4260°N, 46.9069°E)
Time: 22:23:34
(UTC+00:00)

CZ-4B R/B - Pass Details

Date: 30 March 2020
Orbit: 487 x 651 km, 97.9° (Epoch: 24 May)

Event Time Altitude Azimuth Distance (km) Brightness Sun altitude
Rises 01:31:29 0° 19° (NNE) 2,738 7.0 -6.9°
Reaches altitude 10° 01:33:39 10° 27° (NNE) 1,867 6.3 -6.6°
Maximum altitude 01:37:31 43° 99° (E) 834 4.3 -6.2°
Drops below altitude 10° 01:41:34 10° 172° (S) 1,948 5.5 -5.7°
Sets 01:43:52 0° 179° (S) 2,874 6.3 -5.5°
